Location: Oberwangen
(47.4286°N, 8.9679°E)
Time: 22:25:42
(UTC+00:00)

Cosmos 1953 - Pass Details

Date: 20 June 2021
Orbit: 538 x 557 km, 82.5° (Epoch: 23 July)

Event Time Altitude Azimuth Distance (km) Brightness Sun altitude
Rises 20:45:44 0° 344° (NNW) 2,753 7.4 -10.5°
Reaches altitude 10° 20:47:59 10° 338° (NNW) 1,853 6.4 -10.7°
Maximum altitude 20:51:51 42° 267° (W) 798 3.4 -11.1°
Drops below altitude 10° 20:55:41 10° 196° (SSW) 1,834 4.6 -11.5°
Enters shadow 20:56:22 - 193° (SSW) 2,105 4.9 -11.6°
